DW6062 Weather Reports


Display with metric or nautical units.
time (UTC)temp
F
wind
direction
speed
MPH
gust
MPH
rain 1hr
in
rain 24hr
in
rain mn
in
humidity
%
barometer
mb
20260504023616 49 195 1.0 3.0 0.00 0.00 0.00 67 1013.3
20260504023117 49 195 1.0 3.0 0.00 0.00 0.00 67 1013.3
20260504022617 49 195 1.0 3.0 0.00 0.00 0.00 67 1013.4
20260504022117 49 195 1.0 3.0 0.00 0.00 0.00 67 1013.3
20260504021616 49 220 3.0 3.0 0.00 0.00 0.00 68 1013.2
20260504020616 49 220 3.0 3.0 0.00 0.00 0.00 68 1013.2
20260504020117 49 190 2.0 3.0 0.00 0.00 0.00 66 1013.2
20260504015116 49 181 2.0 3.0 0.00 0.00 0.00 66 1013.3
20260504014616 49 181 2.0 3.0 0.00 0.00 0.00 66 1013.2
20260504013616 49 181 2.0 3.0 0.00 0.00 0.00 66 1013.3
20260504013117 49 181 2.0 3.0 0.00 0.00 0.00 66 1013.2
20260504012117 49 181 2.0 9.0 0.00 0.00 0.00 66 1013.4
20260504011616 49 231 6.0 9.0 0.00 0.00 0.00 66 1013.5
20260504011117 50 161 5.0 6.0 0.00 0.00 0.00 65 1013.3
20260504010116 50 161 5.0 6.0 0.00 0.00 0.00 65 1013.4
20260504005616 50 161 4.0 6.0 0.00 0.00 0.00 65 1013.4
20260504005116 50 224 3.0 6.0 0.00 0.00 0.00 64 1013.5
20260504004116 50 254 6.0 13.0 0.00 0.00 0.00 64 1013.4
20260504003117 50 230 3.0 10.0 0.00 0.00 0.00 63 1013.3
20260504002117 50 214 4.0 9.0 0.00 0.00 0.00 62 1013.7
20260504000617 51 330 7.0 12.0 0.00 0.00 0.00 60 1013.6
20260503235617 53 230 6.0 14.0 0.00 0.00 0.00 56 1013.4
20260503234616 56 249 6.0 14.0 0.00 0.00 0.00 44 1012.9
20260503233616 57 177 5.0 8.0 0.00 0.00 0.00 42 1012.8
20260503233116 56 188 3.0 6.0 0.00 0.00 0.00 43 1013.1
20260503232616 56 187 3.0 6.0 0.00 0.00 0.00 43 1012.9
20260503231116 56 213 4.0 9.0 0.00 0.00 0.00 41 1013.1
20260503230616 57 217 4.0 9.0 0.00 0.00 0.00 41 1013.1
20260503230116 57 259 7.0 9.0 0.00 0.00 0.00 40 1013.1
20260503225616 57 259 6.0 9.0 0.00 0.00 0.00 40 1013.0
20260503225116 57 242 3.0 10.0 0.00 0.00 0.00 40 1013.2
20260503224617 57 224 4.0 16.0 0.00 0.00 0.00 41 1013.2
20260503224116 58 246 9.0 15.0 0.00 0.00 0.00 41 1013.1
20260503223616 58 246 9.0 15.0 0.00 0.00 0.00 41 1013.2
20260503223117 58 240 3.0 15.0 0.00 0.00 0.00 42 1013.2
20260503222116 58 224 4.0 16.0 0.00 0.00 0.00 41 1013.4
20260503221616 58 316 8.0 10.0 0.00 0.00 0.00 41 1013.4
20260503221116 58 316 8.0 10.0 0.00 0.00 0.00 41 1013.4
20260503220116 58 350 5.0 7.0 0.00 0.00 0.00 40 1013.3
20260503215616 58 180 4.0 9.0 0.00 0.00 0.00 40 1013.4
20260503215116 58 202 5.0 10.0 0.00 0.00 0.00 41 1013.5
20260503214616 58 230 4.0 10.0 0.00 0.00 0.00 40 1013.4
20260503213117 58 228 4.0 10.0 0.00 0.01 0.00 41 1013.4
20260503212616 58 234 3.0 7.0 0.00 0.01 0.00 41 1013.6
20260503212116 58 249 6.0 13.0 0.00 0.01 0.00 40 1013.5
20260503211617 58 238 7.0 10.0 0.00 0.01 0.00 40 1013.5
20260503211116 58 205 6.0 17.0 0.00 0.02 0.00 40 1013.6
20260503210116 59 227 6.0 12.0 0.00 0.02 0.00 40 1013.5
20260503205616 59 238 5.0 9.0 0.00 0.02 0.00 41 1013.7
20260503205116 59 179 5.0 13.0 0.00 0.02 0.00 40 1013.7
20260503204616 59 211 8.0 10.0 0.00 0.02 0.00 39 1013.8
20260503203616 58 217 6.0 15.0 0.00 0.02 0.00 40 1013.9
20260503203116 58 239 8.0 14.0 0.00 0.02 0.00 40 1014.0
20260503202616 58 203 7.0 21.0 0.00 0.02 0.00 40 1014.0
20260503202116 58 214 6.0 15.0 0.00 0.02 0.00 42 1013.9
20260503201116 59 231 5.0 9.0 0.00 0.02 0.00 41 1013.8
20260503200616 59 213 6.0 10.0 0.00 0.02 0.00 41 1014.0
20260503200116 59 265 5.0 9.0 0.00 0.02 0.00 40 1014.2
20260503195616 60 247 7.0 8.0 0.00 0.02 0.00 39 1014.1
20260503195116 59 267 5.0 8.0 0.00 0.02 0.00 40 1014.3
20260503194616 59 187 6.0 15.0 0.00 0.02 0.00 39 1014.4
20260503194116 59 245 8.0 15.0 0.00 0.02 0.00 39 1014.5
20260503193616 59 227 7.0 25.0 0.00 0.02 0.00 41 1014.5
20260503192617 59 241 6.0 14.0 0.00 0.02 0.00 40 1014.5
20260503192116 60 183 5.0 10.0 0.00 0.02 0.00 39 1014.7
20260503191616 59 227 8.0 14.0 0.00 0.02 0.00 38 1014.6
20260503191116 59 212 6.0 14.0 0.00 0.02 0.00 39 1014.8
20260503190116 59 307 3.0 14.0 0.00 0.02 0.00 41 1015.0
20260503185616 59 230 7.0 13.0 0.00 0.02 0.00 40 1015.2
20260503185116 60 197 6.0 13.0 0.00 0.02 0.00 39 1015.2
20260503184616 59 194 8.0 12.0 0.00 0.02 0.00 38 1015.2
20260503183616 60 249 5.0 10.0 0.00 0.02 0.00 42 1015.4
20260503183116 60 240 3.0 7.0 0.00 0.02 0.00 42 1015.4
20260503182617 60 53 6.0 14.0 0.00 0.02 0.00 40 1015.2
20260503182116 59 231 7.0 14.0 0.00 0.02 0.00 41 1015.5
20260503181616 57 125 4.0 8.0 0.00 0.02 0.00 39 1015.5
20260503181116 58 221 6.0 13.0 0.00 0.02 0.00 39 1015.7
20260503180616 58 175 9.0 13.0 0.00 0.02 0.00 40 1015.6
20260503180116 59 227 7.0 12.0 0.00 0.02 0.00 40 1015.7
20260503175116 58 234 8.0 12.0 0.00 0.02 0.00 41 1015.9
20260503174616 57 121 5.0 14.0 0.00 0.02 0.00 40 1015.8
20260503173616 58 238 5.0 10.0 0.00 0.02 0.00 43 1015.9
20260503172616 58 219 6.0 10.0 0.00 0.02 0.00 45 1016.0
20260503172116 57 201 6.0 9.0 0.00 0.02 0.00 49 1016.0
20260503171116 58 236 5.0 10.0 0.00 0.02 0.00 48 1016.3
20260503170615 57 232 5.0 10.0 0.00 0.02 0.00 47 1016.3
20260503160116 55 207 5.0 9.0 0.00 0.02 0.00 50 1017.1
20260503150616 52 201 5.0 10.0 0.00 0.02 0.00 54 1017.2
20260503140116 47 234 5.0 12.0 0.00 0.02 0.00 57 1017.6
20260503131116 43 204 6.0 8.0 0.00 0.02 0.00 60 1017.9
20260503130115 41 235 3.0 3.0 0.00 0.02 0.00 62 1017.9
20260503120116 36 232 3.0 6.0 0.00 0.02 0.00 71 1017.7
20260503110116 34 193 1.0 3.0 0.00 0.02 0.00 79 1017.3
20260503100115 33 171 2.0 2.0 0.00 0.02 0.00 79 1017.1
20260503033117 43 206 1.0 1.0 0.00 0.02 0.00 64 1017.6
20260503032116 43 206 1.0 1.0 0.00 0.02 0.00 64 1017.5
20260503031617 43 206 1.0 1.0 0.00 0.02 0.00 64 1017.7
20260503030617 43 206 1.0 1.0 0.00 0.02 0.00 64 1017.8
20260503030116 43 206 1.0 1.0 0.00 0.02 0.00 64 1017.5
20260503025617 43 206 1.0 1.0 0.00 0.02 0.00 64 1017.7
20260503025116 43 206 1.0 1.0 0.00 0.02 0.00 64 1017.7
20260503024116 43 206 1.0 1.0 0.00 0.02 0.00 64 1017.9